Greenwood, SC

1:27 PM EDT on September 19, 2017 (GMT -0400)
Greenwood County

Weather History for KGRD - January, 2014

Change the Weather History Date:

Wednesday, January 1, 2014

  Actual Average (KAND) Record (KAND)
Temperature  
Mean Temperature 40 °F -  
Max Temperature 48 °F 54 °F 77 °F (1952)
Min Temperature 32 °F 37 °F 12 °F (1984)
Degree Days  
Heating Degree Days 25    
Moisture  
Dew Point 33 °F    
Average Humidity 77    
Maximum Humidity 92    
Minimum Humidity 52    
Precipitation  
Precipitation 0.00 in - - ()
Sea Level Pressure  
Sea Level Pressure 30.32 in    
Wind  
Wind Speed 0 mph (ENE)    
Max Wind Speed 4 mph    
Max Gust Speed -    
Visibility 8 miles    
Events      
Averages and records for this station are not official NWS values.
T = Trace of Precipitation, MM = Missing Value Source: NWS Daily Summary

Daily Weather History Graph

Daily Weather History Graph

Search for Another Location

Airport or City:

Trip Planner

Search our weather history database for the weather conditions in past years. The results will help you decide how hot, cold, wet, or windy it might be!

Date:

Astronomy

Jan. 01, 2014 Rise Set
Actual Time 7:34 AM EST 5:29 PM EST
Civil Twilight 7:07 AM EST 5:57 PM EST
Nautical Twilight 6:35 AM EST 6:28 PM EST
Astronomical Twilight 6:05 AM EST 6:59 PM EST
Moon 7:26 AM EST (1/1) 6:10 PM EST (1/1)
Length of Visible Light 10h 50m
Length of Day
9h 55m
New Moon, 0% of the Moon is Illuminated
Jan 1
New Moon
Jan 7
First Quarter
Jan 15
Full
Jan 24
Last Quarter
Jan 30
New

Hourly Weather History & Observations

Time (EST) Temp. Windchill Dew Point Humidity Pressure Visibility Wind Dir Wind Speed Gust Speed Precip Events Conditions
12:23 AM 33.8 °F - 30.2 °F 87% 30.37 in 2.0 mi Calm Calm - N/A   Clear
12:56 AM 33.1 °F - 30.0 °F 89% 30.38 in 2.5 mi Calm Calm - N/A   Clear
1:24 AM 33.8 °F - 30.2 °F 87% 30.38 in 3.0 mi Calm Calm - N/A   Clear
1:31 AM 33.8 °F - 30.2 °F 87% 30.37 in 2.0 mi Calm Calm - N/A   Clear
1:42 AM 33.8 °F - 30.2 °F 87% 30.37 in 4.0 mi Calm Calm - N/A   Clear
1:56 AM 33.1 °F - 30.0 °F 89% 30.37 in 4.0 mi Calm Calm - N/A   Clear
2:56 AM 34.0 °F - 30.9 °F 89% 30.38 in 7.0 mi Calm Calm - N/A   Clear
3:56 AM 34.0 °F - 30.9 °F 89% 30.36 in 7.0 mi Calm Calm - N/A   Clear
4:56 AM 34.0 °F - 32.0 °F 92% 30.36 in 8.0 mi Calm Calm - N/A   Clear
5:56 AM 34.0 °F - 30.9 °F 89% 30.37 in 9.0 mi Calm Calm - N/A   Clear
6:56 AM 32.0 °F 28.7 °F 30.0 °F 92% 30.37 in 9.0 mi NNE 3.5 mph - N/A   Clear
7:56 AM 32.0 °F - 28.9 °F 88% 30.39 in 9.0 mi Calm Calm - N/A   Clear
8:56 AM 35.1 °F - 28.9 °F 78% 30.40 in 10.0 mi Calm Calm - N/A   Clear
9:56 AM 39.0 °F 36.8 °F 28.9 °F 67% 30.40 in 10.0 mi NE 3.5 mph - N/A   Clear
10:56 AM 43.0 °F - 30.9 °F 62% 30.40 in 10.0 mi Calm Calm - N/A   Clear
11:56 AM 46.0 °F 44.8 °F 30.0 °F 54% 30.36 in 10.0 mi SE 3.5 mph - N/A   Clear
12:56 PM 48.0 °F - 30.9 °F 52% 30.32 in 10.0 mi Calm Calm - N/A   Clear
1:56 PM 48.9 °F - 32.0 °F 52% 30.30 in 10.0 mi Calm Calm - N/A   Clear
2:56 PM 48.9 °F - 33.1 °F 54% 30.28 in 10.0 mi Calm Calm - N/A   Clear
3:56 PM 48.9 °F - 34.0 °F 56% 30.27 in 10.0 mi Calm Calm - N/A   Scattered Clouds
4:56 PM 46.9 °F - 36.0 °F 66% 30.25 in 10.0 mi Calm Calm - N/A   Overcast
5:56 PM 46.9 °F - 37.9 °F 71% 30.25 in 10.0 mi Calm Calm - N/A   Overcast
6:56 PM 44.1 °F - 37.9 °F 79% 30.26 in 10.0 mi Calm Calm - N/A   Partly Cloudy
7:56 PM 44.1 °F - 37.9 °F 79% 30.24 in 10.0 mi Calm Calm - N/A   Overcast
8:56 PM 45.0 °F - 39.0 °F 80% 30.22 in 10.0 mi Calm Calm - N/A   Overcast
9:56 PM 45.0 °F - 39.9 °F 82% 30.21 in 10.0 mi Calm Calm - N/A   Overcast
10:56 PM 45.0 °F - 39.9 °F 82% 30.19 in 10.0 mi Calm Calm - N/A   Overcast
11:56 PM 45.0 °F - 39.9 °F 82% 30.17 in 10.0 mi Calm Calm - N/A   Overcast